Location: Hannover
(52.3723°N, 9.7339°E)
Time: 23:51:44
(UTC+01:00)

OTV 5 (USA 277) - Visible Passes

Search period start: 22 February 2018 00:00
Search period end: 04 March 2018 00:00
Orbit: 404 x 417 km, 43.0° (Epoch: 07 September)

Date Brightness Start Highest point End Pass type
(mag) Time Alt. Az. Time Alt. Az. Time Alt. Az.
22 Feb ? 06:44:15 10° SSW 06:45:48 13° SSE 06:47:21 10° SE visible
23 Feb ? 05:54:10 10° S 05:54:57 11° SSE 05:55:45 10° SSE visible
24 Feb ? 06:38:29 10° SSW 06:40:34 16° S 06:42:39 10° SE visible
25 Feb ? 05:47:48 10° SSW 05:49:42 14° S 05:51:35 10° SE visible
26 Feb ? 04:59:06 13° SSE 04:59:06 13° SSE 05:00:22 10° SE visible
26 Feb ? 06:33:13 10° SW 06:35:22 16° S 06:37:31 10° SE visible
27 Feb ? 05:43:07 13° SSW 05:44:29 16° S 05:46:39 10° SE visible
28 Feb ? 04:54:23 15° SSE 04:54:23 15° SSE 04:55:41 10° SE visible
28 Feb ? 06:28:19 10° SW 06:30:09 14° SSW 06:31:59 10° SSE visible
01 Mar ? 05:38:23 14° SSW 05:39:17 15° S 05:41:20 10° SSE visible
02 Mar ? 04:49:40 14° SSE 04:49:40 14° SSE 04:50:33 10° SE visible
02 Mar ? 06:24:33 10° SSW 06:24:53 10° SSW 06:25:13 10° SSW visible
03 Mar ? 05:33:44 12° SSW 05:34:03 12° SSW 05:35:27 10° S visible
